This demonstration page uses our WeatherBlox Daily Observations layout. Learn more.

41.55636, -103.73856

Hourly Observations for November 18, 2015

Temp ( °F °C ) Dew Point ( °F °C ) Humidity (%) Winds ( mph kmh ) Pressure ( in mb ) Visibility ( mi km ) Precip ( " mm )
12:53 am 00:53 Clear 26 -3.3 19 -7.2 75 75 WNW 9 15 29.54 1000 10 16.0934 0 0
1:53 am 01:53 Clear 30 -1.1 22 -5.6 72 72 WNW 9 15 29.49 999 10 16.0934 0 0
2:53 am 02:53 Clear 37 2.8 25 -3.9 62 62 WNW 9 15 29.43 997 10 16.0934 0 0
3:53 am 03:53 Clear 40 4.4 25 -3.9 55 55 WNW 16 26 29.39 995 10 16.0934 0 0
4:53 am 04:53 Clear 44 6.7 25 -3.9 47 47 WNW 24 39 29.38 995 10 16.0934 0 0
5:53 am 05:53 Clear 45 7.2 24 -4.4 44 44 WNW 28 44 29.35 994 10 16.0934 0 0
6:53 am 06:53 Mostly Cloudy 46 7.8 25 -3.9 44 44 WNW 30 48 29.4 996 10 16.0934 0 0
7:51 am 07:51 Hazy 46 8 25 -4 43 43 WNW 29 46 29.41 996 1.75 2.816345 0 0
7:53 am 07:53 Hazy 46 7.8 25 -3.9 44 44 WNW 28 44 29.42 996 1.75 2.816345 0 0
8:06 am 08:06 Mostly Sunny 45 7 25 -4 46 46 WNW 22 35 29.41 996 10 16.0934 0 0
8:53 am 08:53 Partly Cloudy 48 8.9 25 -3.9 41 41 WNW 33 54 29.42 996 10 16.0934 0 0
9:53 am 09:53 Sunny 51 10.6 25 -3.9 36 36 WNW 28 44 29.41 996 10 16.0934 0 0
10:51 am 10:51 Cloudy with Light Rain 43 6 32 0 66 66 N 31 50 29.5 999 10 16.0934 0 0.0254
10:53 am 10:53 Mostly Cloudy with Light Rain 42 5.6 32 0 68 68 N 35 56 29.54 1001 10 16.0934 0 0.0254
11:53 am 11:53 Cloudy 44 6.7 25 -3.9 47 47 NNW 44 70 29.57 1001 10 16.0934 0 0.0254
12:53 pm 12:53 Cloudy 39 3.9 23 -5 53 53 NW 30 48 29.66 1004 10 16.0934 0 0
1:53 pm 13:53 Cloudy 42 5.6 17 -8.3 36 36 NNW 36 57 29.7 1006 10 16.0934 0 0
2:53 pm 14:53 Mostly Cloudy 40 4.4 16 -8.9 38 38 NNW 36 57 29.76 1008 10 16.0934 0 0
3:53 pm 15:53 Partly Cloudy 38 3.3 14 -10 37 37 NNW 32 52 29.82 1010 10 16.0934 0 0
4:53 pm 16:53 Cloudy 37 2.8 14 -10 39 39 NNW 16 26 29.86 1011 10 16.0934 0 0
5:53 pm 17:53 Partly Cloudy 35 1.7 14 -10 42 42 NW 16 26 29.92 1013 10 16.0934 0 0
6:53 pm 18:53 Partly Cloudy 33 0.6 14 -10 45 45 NNW 18 30 29.96 1015 10 16.0934 0 0
7:53 pm 19:53 Mostly Cloudy 30 -1.1 15 -9.4 54 54 NW 10 17 30.01 1016 10 16.0934 0 0
8:53 pm 20:53 Cloudy 29 -1.7 15 -9.4 56 56 NW 8 13 30.02 1017 10 16.0934 0 0
9:53 pm 21:53 Clear 24 -4.4 15 -9.4 68 68 WNW 5 7 30.03 1017 10 16.0934 0 0
10:53 pm 22:53 Clear 20 -6.7 13 -10.6 74 74 NW 6 9 30.09 1019 10 16.0934 0 0
11:53 pm 23:53 Clear 19 -7.2 13 -10.6 77 77 NNW 8 13 30.11 1020 10 16.0934 0 0

Powered by AerisWeather